User: anonymous   Login
Location: Gouvernes
(48.8601°N, 2.6907°E)
Time: 13:32:09
(UTC+00:00)
Language:

MOS 1-B Rocket - Orbit

View from above orbital plane
View from above orbital plane
View from above satellite
View from above satellite

Ground track
Ground track

The orbit data is extracted from the following two-line orbital elements,

1 20491U 90013D   22024.03175857 -.00000238  00000-0 -37751-3 0  9996
2 20491  99.0125 198.9223 0467836 323.9591  33.0798 13.03573829520114
Epoch (UTC): 24 January 2022 00:45:43
Eccentricity: 0.0467836
inclination: 99.0125°
perigee height: 891 km
apogee height: 1605 km
right ascension of ascending node: 198.9223°
argument of perigee: 323.9591°
revolutions per day: 13.03573829
mean anomaly at epoch: 33.0798°
orbit number at epoch: 52011

The dashed part of the orbit path shows where the satellite is in the earth's shadow,  

DLR